This is the latest recevied weather packets stored in our database for station/object WA1TYB-13. If no packets are shown the sender has not sent any weather packets the latest 10 day(s).
| Time | Temp. | Humidity | Pressure | Rain* | Wind** | Luminosity | Snow |
|---|---|---|---|---|---|---|---|
| 1787934828 | 17.78° C | 50% | 1018.2 hPa | 0 mm | - | 191 W/m² | - |
| 1787934527 | 17.22° C | 50% | 1018.2 hPa | 0 mm | - | 225 W/m² | - |
| 1787934223 | 17.22° C | 51% | 1018.2 hPa | 0 mm | - | 159 W/m² | - |
| 1787933922 | 17.22° C | 52% | 1018.4 hPa | 0 mm | - | 158 W/m² | - |
| 1787933621 | 17.22° C | 49% | 1018.4 hPa | 0 mm | - | 165 W/m² | - |
| 1787933316 | 16.67° C | 52% | 1018.6 hPa | 0 mm | - | 164 W/m² | - |
| 1787933016 | 16.67° C | 53% | 1018.2 hPa | 0 mm | - | 134 W/m² | - |
| 1787932715 | 16.67° C | 53% | 1018.4 hPa | 0 mm | - | 128 W/m² | - |
| 1787932409 | 16.67° C | 53% | 1018.4 hPa | 0 mm | - | 127 W/m² | - |
| 1787932104 | 16.67° C | 55% | 1018.1 hPa | 0 mm | - | 110 W/m² | - |
| 1787931803 | 16.11° C | 54% | 1018.5 hPa | 0 mm | - | 110 W/m² | - |
| 1787931503 | 16.11° C | 55% | 1018.6 hPa | 0 mm | - | 113 W/m² | - |
| 1787931198 | 16.11° C | 55% | 1018.7 hPa | 0 mm | - | 111 W/m² | - |
| 1787930897 | 15.56° C | 56% | 1018.7 hPa | 0 mm | - | 123 W/m² | - |
| 1787930596 | 15.56° C | 55% | 1018.5 hPa | 0 mm | - | 121 W/m² | - |
| 1787930292 | 15.56° C | 55% | 1018.7 hPa | 0 mm | - | 115 W/m² | - |
| 1787929986 | 15.56° C | 56% | 1018.6 hPa | 0 mm | - | 118 W/m² | - |
| 1787929684 | 15.56° C | 56% | 1018.5 hPa | 0 mm | - | 119 W/m² | - |
| 1787929380 | 15.56° C | 56% | 1018.4 hPa | 0 mm | - | 133 W/m² | - |
| 1787929077 | 15.56° C | 57% | 1018.6 hPa | 0 mm | - | 115 W/m² | - |
| 1787928773 | 15° C | 59% | 1018.4 hPa | 0 mm | - | 95 W/m² | - |
| 1787928471 | 15° C | 60% | 1018.4 hPa | 0 mm | - | 92 W/m² | - |
| 1787928165 | 15° C | 62% | 1018.6 hPa | 0 mm | - | 87 W/m² | - |
| 1787927864 | 14.44° C | 64% | 1018 hPa | 0 mm | - | 93 W/m² | - |
| 1787927559 | 14.44° C | 65% | 1018.2 hPa | 0 mm | - | 94 W/m² | - |
* Rain latest hour (hover to see other rain measurements)
** Current wind speed in m/s (hover to see current wind gust speed)